SL-14 R/B

Satellite information

Favourite Embed

Satellite Type and Status

ROCKET BODYIN ORBIT

Key statistics

Satellite SL-14 R/B at a glance.

Uptime

11697

Days in orbit

Revolutions

≈ 13.8

Per day

Orbit

LEO

Low Earth Orbit

Inclination

82.6

Latest

Satellite identification and parameters

Extended collection of information and parameters for SL-14 R/B.

Object identification

Identified? True

Debris? False

Object name: SL-14 R/B

International designator: 1993-055C

Object number (NORAD): 22784

Object ID (CCSDS): 22784

Country: COMMONWEALTH OF INDEPENDENT STATES (CIS)

Current information (Y/N): Y

RCS size: LARGE

Orbital parameters

Period: 104.081 minutes

Inclination: 82.5538 deg

SMA: 7329.513 km

Apoapsis: 966.654 km

Periapsis: 936.102 km

RAAN: 163.4613 deg

Eccentricy: 0.00208415

Argument of periapsis: 294.9126 deg

Mean anomaly: 180.2457 deg

Mean motion: 13.83534765 rev/day

Mean motion (dot): 0.00000044 rev/day2

B* drag term: 0.000026344872 1/REarth

Two-line elements (TLE)

Creation date: Sept. 8, 2025, 6:18 p.m.

Reference frame: TEME

Reference center: EARTH

Epoch: Sept. 8, 2025, 7:09 a.m. UTC

TLE line 0: 0 SL-14 R/B

TLE line 1: 1 22784U 93055C 25251.29814424 .00000044 00000-0 26345-4 0 9996

TLE line 2: 2 22784 82.5538 163.4613 0020842 294.9126 180.2457 13.83534765616745

Live tracking on map

Real-time ground track for satellite SL-14 R/B.

In-orbit conjunctions

A list of the most updated potential collisions computed for object SL-14 R/B.

Target Orbit TCA Probability of collision Miss distance Type
COSMOS 2251 DEB LEO 2025-08-09 17:55:42 0.0001399392 470.0 (m) DEBRIS
DIAMANT B-P4 DEB LEO 2024-07-18 09:05:56 0.001393511 117.0 (m) DEBRIS

Associated space launch

Second generation soviet meteorological satellite

SL-14 R/B was lifted into orbit during the mission ‘Tsiklon-3 | Meteor-2 21’, on board a Tsiklon-3 space rocket.

The launch took place on Aug. 31, 1993, 4:40 a.m. from 32/1.

For more information about the launch, click the button.

Launch to space Tsiklon-3 | Meteor-2 21
Tsiklon-3 | Meteor-2 21

Agency: N/A

Status: Launch Successful

Launch date: Aug. 31, 1993, 4:40 a.m. UTC

Rocket: Tsiklon-3

Launch pad: 32/1

Location: Plesetsk Cosmodrome, Russian Federation

...

Latest news about this satellite

There are no fresh news available about this satellite. Check back as we update our databases every day.


Newsletter sign-up

Weekly statistics, charts and insights to help you stay on top of the space industry.